When you browse on this site, cookies collect data to enhance your experience and personalize the content and advertising you see.
Visit our Privacy Policy to learn more. By continuing to use the site, you agree to this use of cookies and data.
  • In United Kingdom
  • List of Countries
  • For 7 days
  • Water Temperature
  • Satellite Maps
  • Weather Map
  • Weather Widgets
  • user-avatar
    Login

    Hourly Weather Madingou

    Today, 19 April, Friday

    Time Temperature Precipitation Wind Pressure Humidity
    00:00 +27°C° 0.3 mm 1 mps 744 mmHg 93%
    01:00 +27°C° 0 mm 1 mps 744 mmHg 94%
    02:00 +27°C° 0.1 mm 1 mps 744 mmHg 95%
    03:00 +27°C° 0.1 mm 1 mps 744 mmHg 96%
    04:00 +26°C° 0.1 mm 1 mps 744 mmHg 97%
    05:00 +25°C° 0 mm 0 mps 744 mmHg 97%
    06:00 +25°C° 0 mm 0 mps 744 mmHg 96%
    07:00 +25°C° 0 mm 0 mps 745 mmHg 95%
    08:00 +27°C° 0.2 mm 0 mps 745 mmHg 89%
    09:00 +28°C° 0.2 mm 0 mps 745 mmHg 83%
    10:00 +30°C° 0.2 mm 0 mps 745 mmHg 77%
    11:00 +31°C° 0.7 mm 0 mps 745 mmHg 70%
    12:00 +33°C° 0.7 mm 0 mps 744 mmHg 64%
    13:00 +35°C° 0.7 mm 0 mps 744 mmHg 57%
    14:00 +35°C° 0 mm 0 mps 743 mmHg 56%
    15:00 +36°C° 0 mm 1 mps 743 mmHg 55%
    16:00 +36°C° 0 mm 1 mps 742 mmHg 54%
    17:00 +33°C° 1.8 mm 1 mps 743 mmHg 65%
    18:00 +31°C° 1.8 mm 1 mps 743 mmHg 75%
    19:00 +29°C° 1.8 mm 1 mps 743 mmHg 85%
    20:00 +28°C° 1.2 mm 1 mps 744 mmHg 87%
    21:00 +28°C° 1.2 mm 1 mps 744 mmHg 90%
    22:00 +27°C° 1.2 mm 1 mps 745 mmHg 92%
    23:00 +27°C° 0 mm 1 mps 744 mmHg 93%

    Tomorrow, 20 April, Saturday

    Time Temperature Precipitation Wind Pressure Humidity
    00:00 +27°C° 0 mm 1 mps 744 mmHg 94%
    01:00 +27°C° 0 mm 1 mps 744 mmHg 95%
    02:00 +27°C° 0 mm 1 mps 744 mmHg 96%
    03:00 +26°C° 0 mm 1 mps 744 mmHg 97%
    04:00 +26°C° 0 mm 1 mps 743 mmHg 98%
    05:00 +27°C° 0 mm 1 mps 744 mmHg 97%
    06:00 +27°C° 0 mm 1 mps 744 mmHg 96%
    07:00 +27°C° 0 mm 1 mps 745 mmHg 96%
    08:00 +28°C° 0.1 mm 1 mps 745 mmHg 90%
    09:00 +29°C° 0.1 mm 1 mps 745 mmHg 85%
    10:00 +31°C° 0.1 mm 1 mps 745 mmHg 80%
    11:00 +33°C° 0 mm 1 mps 745 mmHg 72%
    12:00 +34°C° 0 mm 1 mps 744 mmHg 65%
    13:00 +34°C° 0 mm 0 mps 743 mmHg 58%
    14:00 +33°C° 1.1 mm 0 mps 743 mmHg 62%
    15:00 +34°C° 1.1 mm 1 mps 742 mmHg 66%
    16:00 +33°C° 1.1 mm 1 mps 742 mmHg 70%
    17:00 +32°C° 0.8 mm 1 mps 742 mmHg 76%
    18:00 +30°C° 0.8 mm 1 mps 743 mmHg 83%
    19:00 +28°C° 0.8 mm 1 mps 743 mmHg 89%
    20:00 +28°C° 0 mm 1 mps 744 mmHg 90%
    21:00 +28°C° 0 mm 1 mps 744 mmHg 91%
    22:00 +28°C° 0 mm 1 mps 745 mmHg 93%
    23:00 +27°C° 0 mm 1 mps 744 mmHg 94%

    Day after tomorrow, 21 April, Sunday

    Time Temperature Precipitation Wind Pressure Humidity
    00:00 +27°C° 0 mm 1 mps 744 mmHg 94%
    01:00 +27°C° 0 mm 1 mps 744 mmHg 95%
    02:00 +26°C° 0 mm 1 mps 744 mmHg 96%
    03:00 +26°C° 0 mm 1 mps 743 mmHg 97%
    04:00 +26°C° 0 mm 1 mps 743 mmHg 97%
    05:00 +26°C° 0 mm 1 mps 743 mmHg 97%
    06:00 +26°C° 0 mm 1 mps 744 mmHg 96%
    07:00 +27°C° 0 mm 1 mps 744 mmHg 95%
    08:00 +28°C° 0 mm 1 mps 745 mmHg 88%
    09:00 +30°C° 0 mm 1 mps 745 mmHg 81%
    10:00 +32°C° 0 mm 1 mps 746 mmHg 74%
    11:00 +33°C° 0 mm 1 mps 745 mmHg 69%
    12:00 +34°C° 0 mm 1 mps 744 mmHg 64%
    13:00 +35°C° 0 mm 1 mps 743 mmHg 59%
    14:00 +34°C° 0 mm 1 mps 742 mmHg 60%
    15:00 +34°C° 0 mm 1 mps 742 mmHg 61%
    16:00 +34°C° 0 mm 1 mps 741 mmHg 62%
    17:00 +32°C° 0.8 mm 1 mps 742 mmHg 70%
    18:00 +30°C° 0.8 mm 1 mps 742 mmHg 79%
    19:00 +29°C° 0.8 mm 1 mps 743 mmHg 87%
    20:00 +28°C° 0.2 mm 1 mps 743 mmHg 88%
    21:00 +28°C° 0.2 mm 1 mps 744 mmHg 90%
    22:00 +26°C° 0.2 mm 0 mps 744 mmHg 91%
    23:00 +25°C° 0 mm 0 mps 744 mmHg 92%

    22 April, Monday

    Time Temperature Precipitation Wind Pressure Humidity
    00:00 +25°C° 0 mm 0 mps 743 mmHg 93%
    01:00 +25°C° 0 mm 0 mps 743 mmHg 94%
    02:00 +25°C° 0 mm 0 mps 742 mmHg 95%
    03:00 +24°C° 0 mm 0 mps 742 mmHg 95%
    04:00 +24°C° 0 mm 0 mps 742 mmHg 96%
    05:00 +25°C° 0 mm 0 mps 742 mmHg 95%
    06:00 +25°C° 0 mm 0 mps 743 mmHg 94%
    07:00 +25°C° 0 mm 0 mps 743 mmHg 93%
    08:00 +27°C° 0 mm 0 mps 744 mmHg 84%
    09:00 +29°C° 0 mm 0 mps 744 mmHg 75%
    10:00 +34°C° 0 mm 1 mps 744 mmHg 66%
    11:00 +35°C° 0 mm 1 mps 743 mmHg 61%
    12:00 +37°C° 0 mm 1 mps 743 mmHg 55%
    13:00 +39°C° 0 mm 1 mps 742 mmHg 50%
    14:00 +37°C° 0 mm 1 mps 741 mmHg 52%
    15:00 +34°C° 0 mm 0 mps 741 mmHg 55%
    16:00 +33°C° 0 mm 0 mps 740 mmHg 57%
    17:00 +34°C° 0.2 mm 1 mps 741 mmHg 62%
    18:00 +32°C° 0.2 mm 1 mps 741 mmHg 66%
    19:00 +31°C° 0.2 mm 1 mps 742 mmHg 71%
    20:00 +30°C° 1.6 mm 1 mps 742 mmHg 78%
    21:00 +29°C° 1.6 mm 1 mps 743 mmHg 85%
    22:00 +28°C° 1.6 mm 1 mps 743 mmHg 92%
    23:00 +27°C° 0 mm 1 mps 743 mmHg 93%

    23 April, Tuesday

    Time Temperature Precipitation Wind Pressure Humidity
    00:00 +27°C° 0 mm 1 mps 742 mmHg 95%
    01:00 +27°C° 0 mm 1 mps 742 mmHg 96%
    02:00 +27°C° 0 mm 1 mps 742 mmHg 96%
    03:00 +27°C° 0 mm 1 mps 742 mmHg 97%
    04:00 +24°C° 0 mm 0 mps 742 mmHg 97%
    05:00 +25°C° 0 mm 0 mps 742 mmHg 96%
    06:00 +25°C° 0 mm 0 mps 743 mmHg 95%
    07:00 +25°C° 0 mm 0 mps 743 mmHg 95%
    08:00 +26°C° 0 mm 0 mps 744 mmHg 88%
    09:00 +28°C° 0 mm 0 mps 744 mmHg 82%
    10:00 +29°C° 0 mm 0 mps 744 mmHg 76%
    11:00 +33°C° 0.3 mm 1 mps 743 mmHg 71%
    12:00 +34°C° 0.3 mm 1 mps 743 mmHg 66%
    13:00 +36°C° 0.3 mm 1 mps 742 mmHg 61%
    14:00 +36°C° 0.2 mm 1 mps 742 mmHg 60%
    15:00 +34°C° 0.2 mm 0 mps 741 mmHg 58%
    16:00 +33°C° 0.2 mm 0 mps 741 mmHg 57%
    17:00 +34°C° 0.3 mm 1 mps 741 mmHg 65%
    18:00 +32°C° 0.3 mm 1 mps 742 mmHg 73%
    19:00 +30°C° 0.3 mm 1 mps 742 mmHg 81%
    20:00 +29°C° 0.4 mm 1 mps 742 mmHg 85%
    21:00 +29°C° 0.4 mm 1 mps 743 mmHg 88%
    22:00 +28°C° 0.4 mm 1 mps 743 mmHg 92%
    23:00 +28°C° 0 mm 1 mps 743 mmHg 93%

    24 April, Wednesday

    Time Temperature Precipitation Wind Pressure Humidity
    00:00 +27°C° 0 mm 1 mps 743 mmHg 95%
    01:00 +27°C° 0 mm 1 mps 742 mmHg 96%
    02:00 +27°C° 0 mm 1 mps 742 mmHg 97%
    03:00 +27°C° 0 mm 1 mps 742 mmHg 97%
    04:00 +27°C° 0 mm 1 mps 742 mmHg 97%
    05:00 +27°C° 0 mm 1 mps 742 mmHg 96%
    06:00 +27°C° 0 mm 1 mps 743 mmHg 95%
    07:00 +27°C° 0 mm 1 mps 744 mmHg 93%
    08:00 +29°C° 0 mm 1 mps 744 mmHg 87%
    09:00 +30°C° 0 mm 1 mps 744 mmHg 81%
    10:00 +32°C° 0 mm 1 mps 744 mmHg 75%
    11:00 +33°C° 0.8 mm 1 mps 744 mmHg 71%
    12:00 +34°C° 0.8 mm 1 mps 743 mmHg 68%
    13:00 +35°C° 0.8 mm 1 mps 742 mmHg 64%
    14:00 +35°C° 0.7 mm 1 mps 742 mmHg 62%
    15:00 +35°C° 0.7 mm 1 mps 741 mmHg 61%
    16:00 +35°C° 0.7 mm 1 mps 741 mmHg 59%
    17:00 +33°C° 0.1 mm 1 mps 741 mmHg 66%
    18:00 +32°C° 0.1 mm 1 mps 742 mmHg 73%
    19:00 +30°C° 0.1 mm 1 mps 742 mmHg 80%
    20:00 +29°C° 0.2 mm 1 mps 743 mmHg 84%
    21:00 +29°C° 0.2 mm 1 mps 743 mmHg 88%
    22:00 +28°C° 0.2 mm 1 mps 744 mmHg 92%
    23:00 +28°C° 0.4 mm 1 mps 744 mmHg 93%
    Show more